Air Quality Table

TIMESTAMP NO2 SO2 PM10 PM2.5 CO TEMP HUM AIRPRES WS WD NO
2022-08-19 23:00 0 µg/m3 1.86 µg/m3 N/A N/A N/A 27.46 °C 67.16 % 1,010.31 mbar 5.04 m/s 279.84 Deg 0 µg/m3
2022-08-19 22:00 0 µg/m3 1.93 µg/m3 N/A N/A N/A 27.77 °C 64.46 % 1,010.08 mbar 3.8 m/s 282.18 Deg 0 µg/m3
2022-08-19 21:00 0 µg/m3 1.76 µg/m3 N/A N/A N/A 28.21 °C 61.45 % 1,009.94 mbar 4.85 m/s 271.2 Deg 0 µg/m3
2022-08-19 20:00 0 µg/m3 1.63 µg/m3 N/A N/A N/A 28.4 °C 60.44 % 1,009.53 mbar 4.76 m/s 277.99 Deg 0 µg/m3
2022-08-19 19:00 0 µg/m3 1.58 µg/m3 N/A N/A N/A 29.38 °C 49.9 % 1,008.78 mbar 4.87 m/s 268.93 Deg 0 µg/m3
2022-08-19 18:00 0 µg/m3 1.71 µg/m3 N/A N/A N/A 30.32 °C 43.87 % 1,008.71 mbar 3.88 m/s 266.39 Deg 0 µg/m3
2022-08-19 17:00 0 µg/m3 1.96 µg/m3 N/A N/A N/A 29.94 °C 53.46 % 1,009.02 mbar 3.74 m/s 290.72 Deg 0 µg/m3
2022-08-19 16:00 0 µg/m3 1.75 µg/m3 N/A N/A N/A 30.4 °C 61.78 % 1,008.88 mbar 2.76 m/s 322.1 Deg 0 µg/m3
2022-08-19 15:00 0 µg/m3 2.07 µg/m3 N/A N/A N/A 30.63 °C 64.51 % 1,008.79 mbar 2.81 m/s 327.93 Deg 0 µg/m3
2022-08-19 14:00 0 µg/m3 2.01 µg/m3 N/A N/A N/A 30.96 °C 69.13 % 1,009.00 mbar 2.61 m/s 286.64 Deg 0 µg/m3
2022-08-19 13:00 0 µg/m3 2.77 µg/m3 N/A N/A N/A 30.33 °C 72.71 % 1,009.06 mbar 2.06 m/s 299.63 Deg 0 µg/m3
2022-08-19 12:00 0 µg/m3 2.11 µg/m3 N/A N/A N/A 30.62 °C 73.98 % 1,009.16 mbar 0.88 m/s 205.65 Deg 0 µg/m3
2022-08-19 11:00 0 µg/m3 1.95 µg/m3 N/A N/A N/A 30.48 °C 75.18 % 1,009.63 mbar 1.35 m/s 318.98 Deg 0 µg/m3
2022-08-19 10:00 0 µg/m3 1.03 µg/m3 N/A N/A N/A 30.21 °C 76.96 % 1,009.54 mbar 1.9 m/s 331.98 Deg 0 µg/m3
2022-08-19 09:00 0 µg/m3 2.54 µg/m3 N/A N/A N/A 29.89 °C 77.44 % 1,009.55 mbar 2.42 m/s 251.28 Deg 0 µg/m3
2022-08-19 08:00 0 µg/m3 2.94 µg/m3 N/A N/A N/A 29.58 °C 81.21 % 1,009.02 mbar 1.9 m/s 298.59 Deg 0 µg/m3
2022-08-19 07:00 0 µg/m3 3.17 µg/m3 N/A N/A N/A 28.47 °C 84.58 % 1,008.83 mbar 2.33 m/s 214.1 Deg 0 µg/m3
2022-08-19 06:00 0 µg/m3 3.52 µg/m3 N/A N/A N/A 28.44 °C 85.46 % 1,008.43 mbar 1.5 m/s 192.73 Deg 0 µg/m3
2022-08-19 05:00 0 µg/m3 3.35 µg/m3 N/A N/A N/A 28.47 °C 82.91 % 1,008.29 mbar 1.27 m/s 190.12 Deg 0 µg/m3
2022-08-19 04:00 0 µg/m3 3.11 µg/m3 N/A N/A N/A 28.82 °C 78.82 % 1,007.94 mbar 2.55 m/s 213.54 Deg 0 µg/m3
2022-08-19 03:00 0 µg/m3 2.55 µg/m3 N/A N/A N/A 29.37 °C 74.03 % 1,007.89 mbar 0.7 m/s 228.09 Deg 0 µg/m3
2022-08-19 02:00 0 µg/m3 2.72 µg/m3 N/A N/A N/A 29.84 °C 72.1 % 1,008.69 mbar 0.82 m/s 272.14 Deg 0 µg/m3
2022-08-19 01:00 0 µg/m3 1.87 µg/m3 N/A N/A N/A 29.75 °C 74.2 % 1,008.47 mbar 2.8 m/s 239.04 Deg 0 µg/m3
2022-08-19 00:00 0 µg/m3 2 µg/m3 N/A N/A N/A 30.01 °C 73.72 % 1,007.95 mbar 2.16 m/s 184.31 Deg 0 µg/m3
2022-08-18 23:00 0 µg/m3 1.73 µg/m3 N/A N/A N/A 30.16 °C 73.08 % 1,008.10 mbar 2.6 m/s 194.3 Deg 0 µg/m3
2022-08-18 22:00 0 µg/m3 2.1 µg/m3 N/A N/A N/A 30.33 °C 75.37 % 1,007.88 mbar 2.69 m/s 178.68 Deg 0 µg/m3
2022-08-18 21:00 0 µg/m3 2.44 µg/m3 N/A N/A N/A 30.91 °C 71.33 % 1,007.94 mbar 1.61 m/s 188.77 Deg 0 µg/m3
2022-08-18 20:00 0 µg/m3 1.77 µg/m3 N/A N/A N/A 30.92 °C 69.92 % 1,007.92 mbar 2.43 m/s 180.89 Deg 0 µg/m3
2022-08-18 19:00 0 µg/m3 2.42 µg/m3 N/A N/A N/A 31.67 °C 64.87 % 1,007.75 mbar 2.04 m/s 185.37 Deg 0 µg/m3
2022-08-18 18:00 0 µg/m3 2.78 µg/m3 N/A N/A N/A 33.1 °C 57.34 % 1,008.05 mbar 1.77 m/s 191.78 Deg 0 µg/m3
2022-08-18 17:00 0 µg/m3 1.81 µg/m3 N/A N/A N/A 34.08 °C 52.23 % 1,008.53 mbar 1.81 m/s 183.27 Deg 0 µg/m3
2022-08-18 16:00 0 µg/m3 1.53 µg/m3 N/A N/A N/A 34.12 °C 52.25 % 1,008.83 mbar 2.56 m/s 184.06 Deg 0 µg/m3
2022-08-18 15:00 0 µg/m3 2.51 µg/m3 N/A N/A N/A 34 °C 54.24 % 1,009.23 mbar 2.64 m/s 185.31 Deg 0 µg/m3
2022-08-18 14:00 0 µg/m3 2.59 µg/m3 N/A N/A N/A 34.2 °C 55.28 % 1,009.79 mbar 1.88 m/s 190.02 Deg 0 µg/m3
2022-08-18 13:00 0 µg/m3 2.55 µg/m3 N/A N/A N/A 34.18 °C 52.13 % 1,010.13 mbar 1.78 m/s 194.88 Deg 0 µg/m3
2022-08-18 12:00 0 µg/m3 2.03 µg/m3 N/A N/A N/A 33.97 °C 56.38 % 1,010.29 mbar 1.03 m/s 248.89 Deg 0 µg/m3
2022-08-18 11:00 0 µg/m3 2.43 µg/m3 N/A N/A N/A 34.13 °C 54.37 % 1,010.33 mbar 0.87 m/s 199.23 Deg 0 µg/m3
2022-08-18 10:00 0 µg/m3 2.63 µg/m3 N/A N/A N/A 34.05 °C 43.36 % 1,010.70 mbar 1.06 m/s 222.83 Deg 0 µg/m3
2022-08-18 09:00 0 µg/m3 2.83 µg/m3 N/A N/A N/A 32.81 °C 47.41 % 1,010.40 mbar 2.48 m/s 180.55 Deg 0 µg/m3
2022-08-18 08:00 0 µg/m3 2.97 µg/m3 N/A N/A N/A 30.83 °C 63.12 % 1,010.47 mbar 2.58 m/s 190.43 Deg 0 µg/m3
2022-08-18 07:00 0 µg/m3 2.47 µg/m3 N/A N/A N/A 29.21 °C 81.11 % 1,010.19 mbar 2.59 m/s 200.93 Deg 0 µg/m3
2022-08-18 06:00 0 µg/m3 2.4 µg/m3 N/A N/A N/A 28.69 °C 87.63 % 1,009.59 mbar 2.33 m/s 194.99 Deg 0 µg/m3
2022-08-18 05:00 0 µg/m3 1.59 µg/m3 N/A N/A N/A 28.75 °C 87.34 % 1,009.35 mbar 1.56 m/s 200.19 Deg 0 µg/m3
2022-08-18 04:00 0 µg/m3 2.02 µg/m3 N/A N/A N/A 28.93 °C 86.19 % 1,009.65 mbar 1.23 m/s 188.99 Deg 0 µg/m3
2022-08-18 03:00 0 µg/m3 2.52 µg/m3 N/A N/A N/A 29.15 °C 87.05 % 1,009.64 mbar 0.69 m/s 193.85 Deg 0 µg/m3
2022-08-18 02:00 0 µg/m3 1.36 µg/m3 N/A N/A N/A 29.41 °C 87.43 % 1,009.76 mbar 0.55 m/s 251.81 Deg 0 µg/m3
2022-08-18 01:00 0 µg/m3 1.74 µg/m3 N/A N/A N/A 29.46 °C 86.85 % 1,010.02 mbar 0.53 m/s 312.55 Deg 0 µg/m3
2022-08-18 00:00 0 µg/m3 2.75 µg/m3 N/A N/A N/A 29.92 °C 84.12 % 1,010.24 mbar 0.57 m/s 302.22 Deg 0 µg/m3
2022-08-17 23:00 0 µg/m3 3.08 µg/m3 N/A N/A N/A 30.11 °C 84.2 % 1,010.43 mbar 1.21 m/s 193.73 Deg 0 µg/m3
2022-08-17 22:00 0 µg/m3 1.63 µg/m3 N/A N/A N/A 30.36 °C 83.01 % 1,010.52 mbar 0.87 m/s 192.25 Deg 0 µg/m3
2022-08-17 21:00 0 µg/m3 1.67 µg/m3 N/A N/A N/A 31.05 °C 79.5 % 1,010.53 mbar 0.65 m/s 214.01 Deg 0 µg/m3
2022-08-17 20:00 0 µg/m3 2.14 µg/m3 N/A N/A N/A 31.92 °C 73.92 % 1,010.22 mbar 0.69 m/s 193.05 Deg 0 µg/m3
2022-08-17 19:00 0 µg/m3 1.97 µg/m3 N/A N/A N/A 33.07 °C 63.49 % 1,009.99 mbar 0.79 m/s 195.03 Deg 0 µg/m3
2022-08-17 18:00 0 µg/m3 2.39 µg/m3 N/A N/A N/A 34.72 °C 54.24 % 1,010.18 mbar 0.75 m/s 205.8 Deg 0 µg/m3
2022-08-17 17:00 0 µg/m3 2.3 µg/m3 N/A N/A N/A 33.74 °C 62.76 % 1,010.36 mbar 0.83 m/s 198.17 Deg 0 µg/m3
2022-08-17 16:00 0 µg/m3 2.24 µg/m3 N/A N/A N/A 34.39 °C 53.8 % 1,010.44 mbar 0.96 m/s 224.79 Deg 0 µg/m3
2022-08-17 15:00 0 µg/m3 2.33 µg/m3 N/A N/A N/A 34.63 °C 48 % 1,010.49 mbar 0.72 m/s 217.93 Deg 0 µg/m3
2022-08-17 14:00 0 µg/m3 2.34 µg/m3 N/A N/A N/A 33.38 °C 57.33 % 1,010.66 mbar 0.69 m/s 334.79 Deg 0 µg/m3
2022-08-17 13:00 0 µg/m3 2.71 µg/m3 N/A N/A N/A 32.06 °C 69.37 % 1,010.76 mbar 0.81 m/s 150.81 Deg 0 µg/m3
2022-08-17 12:00 0 µg/m3 1.65 µg/m3 N/A N/A N/A 31.25 °C 73.56 % 1,011.06 mbar 0.94 m/s 267.23 Deg 0 µg/m3
2022-08-17 11:00 0 µg/m3 1.79 µg/m3 N/A N/A N/A 30.1 °C 82.19 % 1,011.23 mbar 1.12 m/s 163.74 Deg 0 µg/m3
2022-08-17 10:00 0 µg/m3 1.53 µg/m3 N/A N/A N/A 30.96 °C 77.65 % 1,011.10 mbar 1.09 m/s 210.92 Deg 0 µg/m3
2022-08-17 09:00 18.16 µg/m3 2.39 µg/m3 N/A N/A N/A 30.32 °C 68.91 % 1,011.11 mbar 0.61 m/s 272.29 Deg 18.23 µg/m3
2022-08-17 08:00 207.4 µg/m3 2.55 µg/m3 N/A N/A N/A 29 °C 83.47 % 1,011.11 mbar 0.33 m/s 185.41 Deg 10.39 µg/m3
2022-08-17 07:00 29.66 µg/m3 2.6 µg/m3 N/A N/A N/A 28.33 °C 86.22 % 1,010.75 mbar 0.03 m/s 180.13 Deg 6.91 µg/m3
2022-08-17 06:00 37.84 µg/m3 2.32 µg/m3 N/A N/A N/A 27.46 °C 89.76 % 1,010.51 mbar 0.12 m/s 285.63 Deg 11.03 µg/m3
2022-08-17 05:00 28.69 µg/m3 2.47 µg/m3 N/A N/A N/A 28 °C 94.5 % 1,010.36 mbar 1.31 m/s 197.51 Deg 6.95 µg/m3
2022-08-17 04:00 30.59 µg/m3 2.18 µg/m3 N/A N/A N/A 28.13 °C 94.48 % 1,010.28 mbar 1.92 m/s 210.31 Deg 2.62 µg/m3
2022-08-17 03:00 30.42 µg/m3 2.19 µg/m3 N/A N/A N/A 28.21 °C 94.03 % 1,010.37 mbar 2.18 m/s 214.31 Deg 3.63 µg/m3
2022-08-17 02:00 46.98 µg/m3 2.52 µg/m3 N/A N/A N/A 28.38 °C 92.85 % 1,010.55 mbar 3.31 m/s 198.15 Deg 24.48 µg/m3
2022-08-17 01:00 20.12 µg/m3 2.66 µg/m3 N/A N/A N/A 28.3 °C 93.63 % 1,010.99 mbar 2.96 m/s 206.43 Deg 5.01 µg/m3
2022-08-17 00:00 13.77 µg/m3 2.54 µg/m3 N/A N/A N/A 28.7 °C 91.86 % 1,011.32 mbar 2.46 m/s 213.27 Deg 0.73 µg/m3
2022-08-16 23:00 23.76 µg/m3 2.19 µg/m3 N/A N/A N/A 28.88 °C 90.35 % 1,011.45 mbar 1.75 m/s 201.29 Deg 5.82 µg/m3
2022-08-16 22:00 16.81 µg/m3 2.12 µg/m3 N/A N/A N/A 28.98 °C 89.73 % 1,011.45 mbar 1.86 m/s 211.72 Deg 1.43 µg/m3
2022-08-16 21:00 18.05 µg/m3 2.13 µg/m3 N/A N/A N/A 29.26 °C 88.38 % 1,011.35 mbar 2.69 m/s 212.9 Deg 2.94 µg/m3
2022-08-16 20:00 17.46 µg/m3 2.51 µg/m3 N/A N/A N/A 30.06 °C 83.24 % 1,010.94 mbar 3.43 m/s 213.58 Deg 3.45 µg/m3
2022-08-16 19:00 11.05 µg/m3 2.79 µg/m3 N/A N/A N/A 31.64 °C 67.99 % 1,010.47 mbar 0.54 m/s 282.43 Deg 1.35 µg/m3
2022-08-16 18:00 10.53 µg/m3 2.43 µg/m3 N/A N/A N/A 32.26 °C 65.93 % 1,010.41 mbar 0.6 m/s 255.98 Deg 1.57 µg/m3
2022-08-16 17:00 10.76 µg/m3 2.74 µg/m3 N/A N/A N/A 33.4 °C 54.71 % 1,010.57 mbar 2.29 m/s 251.08 Deg 1.82 µg/m3
2022-08-16 16:00 13.06 µg/m3 2.48 µg/m3 N/A N/A N/A 32.7 °C 59.93 % 1,010.80 mbar 2.91 m/s 257.53 Deg 3.6 µg/m3
2022-08-16 15:00 11.48 µg/m3 2.4 µg/m3 N/A N/A N/A 32.74 °C 62.5 % 1,010.93 mbar 2.63 m/s 212.59 Deg 3.01 µg/m3
2022-08-16 14:00 13.37 µg/m3 2.51 µg/m3 N/A N/A N/A 33.21 °C 50.53 % 1,010.78 mbar 4.45 m/s 213.38 Deg 3.85 µg/m3
2022-08-16 13:00 14.48 µg/m3 2.53 µg/m3 N/A N/A N/A 33.2 °C 47.77 % 1,010.65 mbar 4.42 m/s 208.09 Deg 4.35 µg/m3
2022-08-16 12:00 16.7 µg/m3 2.55 µg/m3 N/A N/A N/A 32.87 °C 51.13 % 1,010.57 mbar 3.13 m/s 209.98 Deg 4.43 µg/m3
2022-08-16 11:00 14.47 µg/m3 2.81 µg/m3 N/A N/A N/A 31.68 °C 57.05 % 1,010.45 mbar 4.74 m/s 207.43 Deg 4.39 µg/m3
2022-08-16 10:00 16.15 µg/m3 2.67 µg/m3 N/A N/A N/A 30.94 °C 62.86 % 1,010.50 mbar 4.13 m/s 209.88 Deg 3.42 µg/m3
2022-08-16 09:00 28.76 µg/m3 2.41 µg/m3 N/A N/A N/A 30.43 °C 67.98 % 1,010.01 mbar 2.67 m/s 200.03 Deg 10 µg/m3
2022-08-16 08:00 35.55 µg/m3 2.75 µg/m3 N/A N/A N/A 29.65 °C 74.44 % 1,009.58 mbar 2.27 m/s 189.04 Deg 9.53 µg/m3
2022-08-16 07:00 39.03 µg/m3 3.31 µg/m3 N/A N/A N/A 28.57 °C 83.39 % 1,009.34 mbar 3.18 m/s 185.33 Deg 8.97 µg/m3
2022-08-16 06:00 29.73 µg/m3 3.46 µg/m3 N/A N/A N/A 28.1 °C 85.43 % 1,009.43 mbar 2.85 m/s 189.83 Deg 4.84 µg/m3
2022-08-16 05:00 24.67 µg/m3 3.14 µg/m3 N/A N/A N/A 28.04 °C 88.46 % 1,009.51 mbar 2.35 m/s 185.53 Deg 4.49 µg/m3
2022-08-16 04:00 29.91 µg/m3 2.97 µg/m3 N/A N/A N/A 28.11 °C 87.47 % 1,009.63 mbar 1.88 m/s 195.25 Deg 7.66 µg/m3
2022-08-16 03:00 37.38 µg/m3 2.83 µg/m3 N/A N/A N/A 28.26 °C 86.06 % 1,009.24 mbar 1.33 m/s 204.85 Deg 9.83 µg/m3
2022-08-16 02:00 8.27 µg/m3 2.67 µg/m3 N/A N/A N/A 28.25 °C 86.85 % 1,010.13 mbar 0.92 m/s 222.89 Deg 2.05 µg/m3
2022-08-16 01:00 5.66 µg/m3 2.4 µg/m3 N/A N/A N/A 28.48 °C 87.3 % 1,011.10 mbar 1.96 m/s 273.45 Deg 0.4 µg/m3
2022-08-16 00:00 11.35 µg/m3 2.48 µg/m3 N/A N/A N/A 28.66 °C 85.42 % 1,011.57 mbar 2.83 m/s 254.78 Deg 0.8 µg/m3
2022-08-15 23:00 24.19 µg/m3 2.86 µg/m3 N/A N/A N/A 28.85 °C 83.89 % 1,010.54 mbar 2.12 m/s 192.88 Deg 4.23 µg/m3
2022-08-15 22:00 36.37 µg/m3 2.63 µg/m3 N/A N/A N/A 29.06 °C 82.17 % 1,009.89 mbar 2.26 m/s 178.17 Deg 9.21 µg/m3
2022-08-15 21:00 32.63 µg/m3 2.67 µg/m3 N/A N/A N/A 29.24 °C 80.65 % 1,009.28 mbar 2.06 m/s 182.04 Deg 5.68 µg/m3
2022-08-15 20:00 30.39 µg/m3 3.04 µg/m3 N/A N/A N/A 29.52 °C 78.49 % 1,008.38 mbar 1.7 m/s 182.4 Deg 2.89 µg/m3
2022-08-15 19:00 23.99 µg/m3 3.57 µg/m3 N/A N/A N/A 30.02 °C 76.23 % 1,007.82 mbar 1.53 m/s 186.73 Deg 3.08 µg/m3
2022-08-15 18:00 22.53 µg/m3 3.25 µg/m3 N/A N/A N/A 30.81 °C 71.87 % 1,007.86 mbar 2.01 m/s 181.09 Deg 4.15 µg/m3
2022-08-15 17:00 19.56 µg/m3 2.85 µg/m3 N/A N/A N/A 31.7 °C 66.78 % 1,008.34 mbar 1.94 m/s 188.78 Deg 3.96 µg/m3
2022-08-15 16:00 19.23 µg/m3 2.43 µg/m3 N/A N/A N/A 31.99 °C 64.47 % 1,008.54 mbar 1.9 m/s 187.73 Deg 5.53 µg/m3
2022-08-15 15:00 18.14 µg/m3 2.93 µg/m3 N/A N/A N/A 32 °C 65.26 % 1,008.65 mbar 1.91 m/s 189.36 Deg 4.06 µg/m3
2022-08-15 14:00 19.24 µg/m3 3.1 µg/m3 N/A N/A N/A 31.57 °C 66.06 % 1,008.87 mbar 2.38 m/s 190.9 Deg 5.22 µg/m3
2022-08-15 13:00 13.42 µg/m3 2.4 µg/m3 N/A N/A N/A 31.9 °C 65.35 % 1,008.89 mbar 1.39 m/s 205.5 Deg 3.23 µg/m3
2022-08-15 12:00 12.94 µg/m3 2.19 µg/m3 N/A N/A N/A 31.74 °C 66.27 % 1,009.06 mbar 0.92 m/s 211.59 Deg 2.45 µg/m3
2022-08-15 11:00 17.64 µg/m3 2.35 µg/m3 N/A N/A N/A 30.74 °C 70.77 % 1,009.12 mbar 1.16 m/s 190.47 Deg 5.79 µg/m3
2022-08-15 10:00 23.51 µg/m3 2.64 µg/m3 N/A N/A N/A 29.98 °C 73.51 % 1,009.10 mbar 1.19 m/s 199.67 Deg 4.29 µg/m3
2022-08-15 09:00 46.66 µg/m3 3.06 µg/m3 N/A N/A N/A 29.46 °C 70.9 % 1,008.82 mbar 0.89 m/s 234.74 Deg 27.25 µg/m3
2022-08-15 08:00 20.15 µg/m3 2.84 µg/m3 N/A N/A N/A 28.71 °C 70.08 % 1,008.50 mbar 0.6 m/s 241.38 Deg 3.12 µg/m3
2022-08-15 07:00 14.39 µg/m3 3.57 µg/m3 N/A N/A N/A 27.84 °C 73.09 % 1,008.33 mbar 0.5 m/s 163.32 Deg 1.03 µg/m3
2022-08-15 06:00 17.47 µg/m3 4 µg/m3 N/A N/A N/A 27.43 °C 75.79 % 1,007.63 mbar 0.61 m/s 251.49 Deg 1.52 µg/m3
2022-08-15 05:00 14.57 µg/m3 4.23 µg/m3 N/A N/A N/A 27.25 °C 79.04 % 1,007.55 mbar 0.74 m/s 295.98 Deg 0.65 µg/m3
2022-08-15 04:00 8.33 µg/m3 4.28 µg/m3 N/A N/A N/A 27.18 °C 85.48 % 1,007.61 mbar 1 m/s 188.28 Deg 0.75 µg/m3
2022-08-15 03:00 15.21 µg/m3 4.35 µg/m3 N/A N/A N/A 27.39 °C 85.99 % 1,007.53 mbar 0.4 m/s 313.83 Deg 2.83 µg/m3
2022-08-15 02:00 8.04 µg/m3 4.23 µg/m3 N/A N/A N/A 27.41 °C 85.22 % 1,007.75 mbar 0.79 m/s 259.98 Deg 0.85 µg/m3
2022-08-15 01:00 5.41 µg/m3 4.39 µg/m3 N/A N/A N/A 27.65 °C 83.92 % 1,007.82 mbar 0.41 m/s 286.77 Deg 0.38 µg/m3
2022-08-15 00:00 6.77 µg/m3 5.46 µg/m3 N/A N/A N/A 27.97 °C 82.1 % 1,008.06 mbar 0.49 m/s 257.86 Deg 0.63 µg/m3
2022-08-14 23:00 21.62 µg/m3 4.58 µg/m3 N/A N/A N/A 28.36 °C 77.75 % 1,007.83 mbar 0.92 m/s 333.83 Deg 4.29 µg/m3
2022-08-14 22:00 26.8 µg/m3 3.54 µg/m3 N/A N/A N/A 29.19 °C 69.86 % 1,007.89 mbar 1.28 m/s 285.12 Deg 15.07 µg/m3
2022-08-14 21:00 44.11 µg/m3 3.47 µg/m3 N/A N/A N/A 29.29 °C 65.2 % 1,007.60 mbar 1.76 m/s 257.33 Deg 17 µg/m3
2022-08-14 20:00 60.28 µg/m3 4.01 µg/m3 N/A N/A N/A 29.39 °C 63.08 % 1,006.99 mbar 3.29 m/s 234.13 Deg 68.95 µg/m3
2022-08-14 19:00 64.93 µg/m3 1.69 µg/m3 N/A N/A N/A 30.5 °C 52.36 % 1,006.35 mbar 4.39 m/s 228.38 Deg 77.24 µg/m3
2022-08-14 18:00 35.22 µg/m3 3.24 µg/m3 N/A N/A N/A 31.69 °C 48.42 % 1,006.10 mbar 2.93 m/s 252.13 Deg 15.96 µg/m3
2022-08-14 17:00 18.07 µg/m3 2.63 µg/m3 N/A N/A N/A 32.6 °C 45.97 % 1,006.17 mbar 0.96 m/s 288.86 Deg 2.98 µg/m3
2022-08-14 16:00 10.67 µg/m3 3.01 µg/m3 N/A N/A N/A 32.42 °C 44.38 % 1,006.52 mbar 0.92 m/s 262 Deg 3.27 µg/m3
2022-08-14 15:00 5.52 µg/m3 3.24 µg/m3 N/A N/A N/A 30.72 °C 67.35 % 1,006.81 mbar 1.35 m/s 311.98 Deg 1.6 µg/m3
2022-08-14 14:00 4.69 µg/m3 4.24 µg/m3 N/A N/A N/A 30.62 °C 75.97 % 1,007.25 mbar 0.91 m/s 263.24 Deg 1.59 µg/m3
2022-08-14 13:00 7.6 µg/m3 4.44 µg/m3 N/A N/A N/A 29.5 °C 81.76 % 1,007.48 mbar 1.74 m/s 327.87 Deg 1.54 µg/m3
2022-08-14 12:00 7.23 µg/m3 4.99 µg/m3 N/A N/A N/A 29.85 °C 78.96 % 1,007.79 mbar 1.87 m/s 335.78 Deg 1.21 µg/m3
2022-08-14 11:00 16.89 µg/m3 5.35 µg/m3 N/A N/A N/A 30.36 °C 73.68 % 1,008.00 mbar 1.92 m/s 324.6 Deg 5.49 µg/m3
2022-08-14 10:00 26.22 µg/m3 5.17 µg/m3 N/A N/A N/A 30.78 °C 54.51 % 1,008.11 mbar 3.66 m/s 247.74 Deg 15.84 µg/m3
2022-08-14 09:00 21.97 µg/m3 5.63 µg/m3 N/A N/A N/A 30.23 °C 57.06 % 1,007.90 mbar 3.84 m/s 259.03 Deg 9.22 µg/m3
2022-08-14 08:00 26.47 µg/m3 6.04 µg/m3 N/A N/A N/A 28.56 °C 73.04 % 1,007.49 mbar 3.02 m/s 222.68 Deg 7.92 µg/m3
2022-08-14 07:00 44.38 µg/m3 5.93 µg/m3 N/A N/A N/A 27.21 °C 87.42 % 1,007.49 mbar 3.71 m/s 205.93 Deg 8.03 µg/m3
2022-08-14 06:00 44.39 µg/m3 5.33 µg/m3 N/A N/A N/A 26.84 °C 86.53 % 1,007.76 mbar 1.87 m/s 192.93 Deg 4.97 µg/m3
2022-08-14 05:00 40.1 µg/m3 5.72 µg/m3 N/A N/A N/A 26.95 °C 85.97 % 1,008.06 mbar 2.2 m/s 193.55 Deg 1.44 µg/m3
2022-08-14 04:00 23.76 µg/m3 6.79 µg/m3 N/A N/A N/A 27.24 °C 83.81 % 1,008.35 mbar 3.58 m/s 206.55 Deg 1.29 µg/m3
2022-08-14 03:00 33.96 µg/m3 7.12 µg/m3 N/A N/A N/A 27.27 °C 82.71 % 1,008.73 mbar 3.51 m/s 196.77 Deg 1 µg/m3
2022-08-14 02:00 25.92 µg/m3 5.67 µg/m3 N/A N/A N/A 27.35 °C 81.46 % 1,009.11 mbar 3.93 m/s 208.96 Deg 0.71 µg/m3
2022-08-14 01:00 26.85 µg/m3 4.47 µg/m3 N/A N/A N/A 27.49 °C 81.22 % 1,009.61 mbar 3.83 m/s 208.07 Deg 0.63 µg/m3
2022-08-14 00:00 26.16 µg/m3 5.46 µg/m3 N/A N/A N/A 27.59 °C 80.19 % 1,009.89 mbar 4.47 m/s 211.21 Deg 0.94 µg/m3
2022-08-13 23:00 33.87 µg/m3 5.66 µg/m3 N/A N/A N/A 27.75 °C 77.15 % 1,009.85 mbar 4.5 m/s 209.09 Deg 2.2 µg/m3
2022-08-13 22:00 13.92 µg/m3 5.72 µg/m3 N/A N/A N/A 27.98 °C 74.31 % 1,009.88 mbar 4.88 m/s 215.44 Deg 0.56 µg/m3
2022-08-13 21:00 19.52 µg/m3 6.01 µg/m3 N/A N/A N/A 28.02 °C 73.36 % 1,009.80 mbar 5.53 m/s 211.5 Deg 0.77 µg/m3
2022-08-13 20:00 16.72 µg/m3 5.61 µg/m3 N/A N/A N/A 28.3 °C 72.71 % 1,009.70 mbar 5.97 m/s 202.48 Deg 0.54 µg/m3
2022-08-13 19:00 15.94 µg/m3 4.56 µg/m3 N/A N/A N/A 28.72 °C 66.75 % 1,009.29 mbar 6.87 m/s 217.7 Deg 15.25 µg/m3
2022-08-13 18:00 10.11 µg/m3 3.91 µg/m3 N/A N/A N/A 29.33 °C 60.66 % 1,009.27 mbar 6.75 m/s 223.78 Deg 1.01 µg/m3
2022-08-13 17:00 17.88 µg/m3 4.52 µg/m3 N/A N/A N/A 29.89 °C 52.35 % 1,009.56 mbar 6.05 m/s 240.63 Deg 9.92 µg/m3
2022-08-13 16:00 31.9 µg/m3 4.31 µg/m3 N/A N/A N/A 29.52 °C 60.43 % 1,010.10 mbar 5.81 m/s 240.87 Deg 16.71 µg/m3
2022-08-13 15:00 28.08 µg/m3 2.67 µg/m3 N/A N/A N/A 29.65 °C 58.99 % 1,010.68 mbar 5.5 m/s 243.94 Deg 14.98 µg/m3
2022-08-13 14:00 27.02 µg/m3 2.06 µg/m3 N/A N/A N/A 29.49 °C 58.18 % 1,010.92 mbar 5.11 m/s 241.22 Deg 11.56 µg/m3
2022-08-13 13:00 15.43 µg/m3 2.35 µg/m3 N/A N/A N/A 29.16 °C 63.09 % 1,011.10 mbar 2.92 m/s 274.11 Deg 3.13 µg/m3
2022-08-13 12:00 14.6 µg/m3 2.71 µg/m3 N/A N/A N/A 28.88 °C 68.53 % 1,011.42 mbar 2.01 m/s 331.97 Deg 3.53 µg/m3
2022-08-13 11:00 12.36 µg/m3 2.24 µg/m3 N/A N/A N/A 28.61 °C 70.04 % 1,011.51 mbar 2 m/s 325.93 Deg 1.88 µg/m3
2022-08-13 10:00 15.23 µg/m3 2.13 µg/m3 N/A N/A N/A 28.56 °C 68.69 % 1,011.32 mbar 1.7 m/s 331.6 Deg 3.08 µg/m3
2022-08-13 09:00 20.7 µg/m3 2.92 µg/m3 N/A N/A N/A 27.68 °C 65.12 % 1,011.08 mbar 2.99 m/s 271.32 Deg 4.9 µg/m3
2022-08-13 08:00 49.27 µg/m3 2.09 µg/m3 N/A N/A N/A 26.7 °C 72.72 % 1,010.86 mbar 2.61 m/s 229.84 Deg 19.98 µg/m3
2022-08-13 07:00 70.88 µg/m3 2.56 µg/m3 N/A N/A N/A 25.71 °C 79.55 % 1,010.39 mbar 1.62 m/s 208.66 Deg 49.82 µg/m3
2022-08-13 06:00 23.45 µg/m3 2.63 µg/m3 N/A N/A N/A 26.32 °C 73.53 % 1,010.19 mbar 1.2 m/s 306.05 Deg 2.85 µg/m3
2022-08-13 05:00 8.44 µg/m3 3.42 µg/m3 N/A N/A N/A 26.43 °C 73 % 1,010.01 mbar 1.11 m/s 345.03 Deg 0.68 µg/m3
2022-08-13 04:00 10.23 µg/m3 3.17 µg/m3 N/A N/A N/A 26.57 °C 72.37 % 1,010.09 mbar 1.33 m/s 341.63 Deg 0.83 µg/m3
2022-08-13 03:00 15.02 µg/m3 3.06 µg/m3 N/A N/A N/A 26.55 °C 73.46 % 1,009.93 mbar 0.87 m/s 332.36 Deg 1.61 µg/m3
2022-08-13 02:00 6.85 µg/m3 3.29 µg/m3 N/A N/A N/A 26.73 °C 78.51 % 1,010.06 mbar 0.92 m/s 331.97 Deg 0.6 µg/m3
2022-08-13 01:00 9.11 µg/m3 3.26 µg/m3 N/A N/A N/A 27.82 °C 74.02 % 1,010.40 mbar 0.86 m/s 321.38 Deg 0.38 µg/m3

It is to be noted that the data is provisional and subject to quality assurance procedures. For validated data kindly refer your request to contact.air@era.org.mt